Year,Month,Day,Hour,Minute,Value (Times are PST for temperature in C)
2018,04,21,07,55,8.20
2018,04,21,07,56,8.20
2018,04,21,07,57,8.20
2018,04,21,07,58,8.20
2018,04,21,07,59,8.20
2018,04,21,08,00,8.20
2018,04,21,08,01,8.20
2018,04,21,08,02,8.20
2018,04,21,08,03,8.30
2018,04,21,08,04,8.30
2018,04,21,08,05,8.30
2018,04,21,08,06,8.30
2018,04,21,08,07,8.30
2018,04,21,08,08,8.30
2018,04,21,08,09,8.30
2018,04,21,08,10,8.30
2018,04,21,08,11,8.30
2018,04,21,08,12,8.40
2018,04,21,08,13,8.40
2018,04,21,08,14,8.40
2018,04,21,08,15,8.40
2018,04,21,08,16,8.40
2018,04,21,08,17,8.40
2018,04,21,08,18,8.40
2018,04,21,08,19,8.50
2018,04,21,08,20,8.50
2018,04,21,08,21,8.60
2018,04,21,08,22,8.60
2018,04,21,08,23,8.60
2018,04,21,08,24,8.60
2018,04,21,08,25,8.60
2018,04,21,08,26,8.60
2018,04,21,08,27,8.60
2018,04,21,08,28,8.70
2018,04,21,08,29,8.70
2018,04,21,08,30,8.70
2018,04,21,08,31,8.70
2018,04,21,08,32,8.70
2018,04,21,08,33,8.70
2018,04,21,08,34,8.70
2018,04,21,08,35,8.80
2018,04,21,08,36,8.80
2018,04,21,08,37,8.80
2018,04,21,08,38,8.80
2018,04,21,08,39,8.80
2018,04,21,08,40,8.90
2018,04,21,08,41,8.90
2018,04,21,08,42,9.00
2018,04,21,08,43,9.00
2018,04,21,08,44,9.00
2018,04,21,08,45,9.10
2018,04,21,08,46,9.10
2018,04,21,08,47,9.10
2018,04,21,08,48,9.10
2018,04,21,08,49,9.00
2018,04,21,08,50,9.00
2018,04,21,08,51,9.00
2018,04,21,08,52,9.10
2018,04,21,08,53,9.10
2018,04,21,08,54,9.10
2018,04,21,08,55,9.20
2018,04,21,08,56,9.20
2018,04,21,08,57,9.20
2018,04,21,08,58,9.20
2018,04,21,08,59,9.20
2018,04,21,09,00,9.20
2018,04,21,09,01,9.20
2018,04,21,09,02,9.30
2018,04,21,09,03,9.30
2018,04,21,09,04,9.30
2018,04,21,09,05,9.40
2018,04,21,09,06,9.40
2018,04,21,09,07,9.40
2018,04,21,09,08,9.50
2018,04,21,09,09,9.50
2018,04,21,09,10,9.50
2018,04,21,09,11,9.50
2018,04,21,09,12,9.50
2018,04,21,09,13,9.60
2018,04,21,09,14,9.60
2018,04,21,09,15,9.60
2018,04,21,09,16,9.60
2018,04,21,09,17,9.60
2018,04,21,09,18,9.50
2018,04,21,09,19,9.50
2018,04,21,09,20,9.40
2018,04,21,09,21,9.50
2018,04,21,09,22,9.50
2018,04,21,09,23,9.50
2018,04,21,09,24,9.60
2018,04,21,09,25,9.50
2018,04,21,09,26,9.50
2018,04,21,09,27,9.50
2018,04,21,09,28,9.60
2018,04,21,09,29,9.60
2018,04,21,09,30,9.60
2018,04,21,09,31,9.60
2018,04,21,09,32,9.70
2018,04,21,09,33,9.70
2018,04,21,09,34,9.70
2018,04,21,09,35,9.60
2018,04,21,09,36,9.60
2018,04,21,09,37,9.60
2018,04,21,09,38,9.60
2018,04,21,09,39,9.60
2018,04,21,09,40,9.60
2018,04,21,09,41,9.70
2018,04,21,09,42,9.70
2018,04,21,09,43,9.70
2018,04,21,09,44,9.70
2018,04,21,09,45,9.80
2018,04,21,09,46,9.80
2018,04,21,09,47,9.90
2018,04,21,09,48,9.90
2018,04,21,09,49,9.80
2018,04,21,09,50,9.70
2018,04,21,09,51,9.70
2018,04,21,09,52,9.70
2018,04,21,09,53,9.70
2018,04,21,09,54,9.70
2018,04,21,09,55,9.70
2018,04,21,09,56,9.70
2018,04,21,09,57,9.70
2018,04,21,09,58,9.70
2018,04,21,09,59,9.70
2018,04,21,10,00,9.60
2018,04,21,10,01,9.60
2018,04,21,10,02,9.60
2018,04,21,10,03,9.60
2018,04,21,10,04,9.60
2018,04,21,10,05,9.60
2018,04,21,10,06,9.60
2018,04,21,10,07,9.60
2018,04,21,10,08,9.60
2018,04,21,10,09,9.70
2018,04,21,10,10,9.70
2018,04,21,10,11,9.70
2018,04,21,10,12,9.70
2018,04,21,10,13,9.70
2018,04,21,10,14,9.70
2018,04,21,10,15,9.70
2018,04,21,10,16,9.70
2018,04,21,10,17,9.70
2018,04,21,10,18,9.80
2018,04,21,10,19,9.80
2018,04,21,10,20,9.80
2018,04,21,10,21,9.80
2018,04,21,10,22,9.90
2018,04,21,10,23,9.90
2018,04,21,10,24,9.90
2018,04,21,10,25,9.90
2018,04,21,10,26,10.00
2018,04,21,10,27,10.10
2018,04,21,10,28,10.10
2018,04,21,10,29,10.20
2018,04,21,10,30,10.20
2018,04,21,10,31,10.20
2018,04,21,10,32,10.20
2018,04,21,10,33,10.20
2018,04,21,10,34,10.20
2018,04,21,10,35,10.30
2018,04,21,10,36,10.30
2018,04,21,10,37,10.40
2018,04,21,10,38,10.40
2018,04,21,10,39,10.40
2018,04,21,10,40,10.40
2018,04,21,10,41,10.40
2018,04,21,10,42,10.40
2018,04,21,10,43,10.40
2018,04,21,10,44,10.50
2018,04,21,10,45,10.60
2018,04,21,10,46,10.60
2018,04,21,10,47,10.60
2018,04,21,10,48,10.70
2018,04,21,10,49,10.70
2018,04,21,10,50,10.70
2018,04,21,10,51,10.80
2018,04,21,10,52,10.90
2018,04,21,10,53,11.00
2018,04,21,10,54,10.90
2018,04,21,10,55,11.00
2018,04,21,10,56,11.10
2018,04,21,10,57,11.10
2018,04,21,10,58,11.10
2018,04,21,10,59,11.10
2018,04,21,11,00,11.10
2018,04,21,11,01,11.10
2018,04,21,11,02,11.10
2018,04,21,11,03,11.10
2018,04,21,11,04,11.20
2018,04,21,11,05,11.20
2018,04,21,11,06,11.20
2018,04,21,11,07,11.10
2018,04,21,11,08,11.10
2018,04,21,11,09,11.00
2018,04,21,11,10,10.90
2018,04,21,11,11,10.90
2018,04,21,11,12,10.90
2018,04,21,11,13,10.90
2018,04,21,11,14,10.90
2018,04,21,11,15,10.90
2018,04,21,11,16,10.90
2018,04,21,11,17,11.00
2018,04,21,11,18,11.10
2018,04,21,11,19,11.10
2018,04,21,11,20,11.20
2018,04,21,11,21,11.20
2018,04,21,11,22,11.20
2018,04,21,11,23,11.30
2018,04,21,11,24,11.40
2018,04,21,11,25,11.40
2018,04,21,11,26,11.50
2018,04,21,11,27,11.60
2018,04,21,11,28,11.60
2018,04,21,11,29,11.60
2018,04,21,11,30,11.60
2018,04,21,11,31,11.60
2018,04,21,11,32,11.70
2018,04,21,11,33,11.70
2018,04,21,11,34,11.80
2018,04,21,11,35,11.70
2018,04,21,11,36,11.70
2018,04,21,11,37,11.70
2018,04,21,11,38,11.60
2018,04,21,11,39,11.60
2018,04,21,11,40,11.60
2018,04,21,11,41,11.60
2018,04,21,11,42,11.60
2018,04,21,11,43,11.60
2018,04,21,11,44,11.60
2018,04,21,11,45,11.50
2018,04,21,11,46,11.50
2018,04,21,11,47,11.60
2018,04,21,11,48,11.60
2018,04,21,11,49,11.70
2018,04,21,11,50,11.70
2018,04,21,11,51,11.70
2018,04,21,11,52,11.70
2018,04,21,11,53,11.70
2018,04,21,11,54,11.60
2018,04,21,11,55,11.60
2018,04,21,11,56,11.60
2018,04,21,11,57,11.70
2018,04,21,11,58,11.80
2018,04,21,11,59,11.80
2018,04,21,12,00,11.90
2018,04,21,12,01,11.90
2018,04,21,12,02,12.00
2018,04,21,12,03,12.00
2018,04,21,12,04,12.00
2018,04,21,12,05,12.10
2018,04,21,12,06,12.10
2018,04,21,12,07,12.00
2018,04,21,12,08,12.00
2018,04,21,12,09,12.00
2018,04,21,12,10,12.00
2018,04,21,12,11,12.00
2018,04,21,12,12,12.00
2018,04,21,12,13,11.90
2018,04,21,12,14,11.90
2018,04,21,12,15,11.80
2018,04,21,12,16,11.80
2018,04,21,12,17,11.80
2018,04,21,12,18,11.80
2018,04,21,12,19,11.80
2018,04,21,12,20,11.80
2018,04,21,12,21,11.70
2018,04,21,12,22,11.70
2018,04,21,12,23,11.70
2018,04,21,12,24,11.80
2018,04,21,12,25,11.70
2018,04,21,12,26,11.70
2018,04,21,12,27,11.70
2018,04,21,12,28,11.70
2018,04,21,12,29,11.70
2018,04,21,12,30,11.70
2018,04,21,12,31,11.70
2018,04,21,12,32,11.80
2018,04,21,12,33,11.80
2018,04,21,12,34,11.70
2018,04,21,12,35,11.70
2018,04,21,12,36,11.60
2018,04,21,12,37,11.60
2018,04,21,12,38,11.60
2018,04,21,12,39,11.60
2018,04,21,12,40,11.50
2018,04,21,12,41,11.40
2018,04,21,12,42,11.40
2018,04,21,12,43,11.40
2018,04,21,12,44,11.30
2018,04,21,12,45,11.30
2018,04,21,12,46,11.20
2018,04,21,12,47,11.20
2018,04,21,12,48,11.10
2018,04,21,12,49,11.10
2018,04,21,12,50,11.10
2018,04,21,12,51,11.10
2018,04,21,12,52,11.10
2018,04,21,12,53,11.10
2018,04,21,12,54,10.90
2018,04,21,12,55,11.00
2018,04,21,12,56,11.10
2018,04,21,12,57,11.20
2018,04,21,12,58,11.30
2018,04,21,12,59,11.30
2018,04,21,13,00,11.30
2018,04,21,13,01,11.20
2018,04,21,13,02,11.20
2018,04,21,13,03,11.20
2018,04,21,13,04,11.20
2018,04,21,13,05,11.30
2018,04,21,13,06,11.30
2018,04,21,13,07,11.40
2018,04,21,13,08,11.40
2018,04,21,13,09,11.40
2018,04,21,13,10,11.40
2018,04,21,13,11,11.40
2018,04,21,13,12,11.40
2018,04,21,13,13,11.50
2018,04,21,13,14,11.60
2018,04,21,13,15,11.60
2018,04,21,13,16,11.60
2018,04,21,13,17,11.60
2018,04,21,13,18,11.70
2018,04,21,13,19,11.70
2018,04,21,13,20,11.70
2018,04,21,13,21,11.70
2018,04,21,13,22,11.70
2018,04,21,13,23,11.80
2018,04,21,13,24,11.80
2018,04,21,13,25,11.80
2018,04,21,13,26,11.80
2018,04,21,13,27,11.90
2018,04,21,13,28,11.90
2018,04,21,13,29,11.90
2018,04,21,13,30,11.90
2018,04,21,13,31,11.90
2018,04,21,13,32,11.90
2018,04,21,13,33,11.90
2018,04,21,13,34,11.90
2018,04,21,13,35,12.00
2018,04,21,13,36,12.00
2018,04,21,13,37,12.00
2018,04,21,13,38,12.00
2018,04,21,13,39,12.00
2018,04,21,13,40,12.10
2018,04,21,13,41,12.10
2018,04,21,13,42,12.10
2018,04,21,13,43,12.20
2018,04,21,13,44,12.20
2018,04,21,13,45,12.30
2018,04,21,13,46,12.30
2018,04,21,13,47,12.30
2018,04,21,13,48,12.30
2018,04,21,13,49,12.40
2018,04,21,13,50,12.30
2018,04,21,13,51,12.30
2018,04,21,13,52,12.20
2018,04,21,13,53,12.30
2018,04,21,13,54,12.30
2018,04,21,13,55,12.30
2018,04,21,13,56,12.30
2018,04,21,13,57,12.30
2018,04,21,13,58,12.30
2018,04,21,13,59,12.20
2018,04,21,14,00,12.10
2018,04,21,14,01,12.10
2018,04,21,14,02,12.10
2018,04,21,14,03,12.10
2018,04,21,14,04,12.20
2018,04,21,14,05,12.20
2018,04,21,14,06,12.20
2018,04,21,14,07,12.20
2018,04,21,14,08,12.20
2018,04,21,14,09,12.20
2018,04,21,14,10,12.20
2018,04,21,14,11,12.20
2018,04,21,14,12,12.20
2018,04,21,14,13,12.20
2018,04,21,14,14,12.20
2018,04,21,14,15,12.20
2018,04,21,14,16,12.20
2018,04,21,14,17,12.30
2018,04,21,14,18,12.30
2018,04,21,14,19,12.40
2018,04,21,14,20,12.50
2018,04,21,14,21,12.50
2018,04,21,14,22,12.60
2018,04,21,14,23,12.60
2018,04,21,14,24,12.70
2018,04,21,14,25,12.70
2018,04,21,14,26,12.70
2018,04,21,14,27,12.70
2018,04,21,14,28,12.80
2018,04,21,14,29,12.80
2018,04,21,14,30,12.80
2018,04,21,14,31,12.70
2018,04,21,14,32,12.60
2018,04,21,14,33,12.60
2018,04,21,14,34,12.60
2018,04,21,14,35,12.50
2018,04,21,14,36,12.50
2018,04,21,14,37,12.50
2018,04,21,14,38,12.50
2018,04,21,14,39,12.50
2018,04,21,14,40,12.50
2018,04,21,14,41,12.40
2018,04,21,14,42,12.40
2018,04,21,14,43,12.50
2018,04,21,14,44,12.50
2018,04,21,14,45,12.60
2018,04,21,14,46,12.60
2018,04,21,14,47,12.60
2018,04,21,14,48,12.60
2018,04,21,14,49,12.60
2018,04,21,14,50,12.70
2018,04,21,14,51,12.60
2018,04,21,14,52,12.60
2018,04,21,14,53,12.60
2018,04,21,14,54,12.50
2018,04,21,14,55,12.50
2018,04,21,14,56,12.50
2018,04,21,14,57,12.50
2018,04,21,14,58,12.50
2018,04,21,14,59,12.50
2018,04,21,15,00,12.60
2018,04,21,15,01,12.50
2018,04,21,15,02,12.50
2018,04,21,15,03,12.50
2018,04,21,15,04,12.40
2018,04,21,15,05,12.50
2018,04,21,15,06,12.50
2018,04,21,15,07,12.40
2018,04,21,15,08,12.50
2018,04,21,15,09,12.50
2018,04,21,15,10,12.50
2018,04,21,15,11,12.60
2018,04,21,15,12,12.60
2018,04,21,15,13,12.70
2018,04,21,15,14,12.70
2018,04,21,15,15,12.70
2018,04,21,15,16,12.60
2018,04,21,15,17,12.60
2018,04,21,15,18,12.60
2018,04,21,15,19,12.60
2018,04,21,15,20,12.60
2018,04,21,15,21,12.50
2018,04,21,15,22,12.60
2018,04,21,15,23,12.60
2018,04,21,15,24,12.50
2018,04,21,15,25,12.50
2018,04,21,15,26,12.50
2018,04,21,15,27,12.60
2018,04,21,15,28,12.60
2018,04,21,15,29,12.60
2018,04,21,15,30,12.60
2018,04,21,15,31,12.60
2018,04,21,15,32,12.60
2018,04,21,15,33,12.60
2018,04,21,15,34,12.60
2018,04,21,15,35,12.70
2018,04,21,15,36,12.80
2018,04,21,15,37,12.80
2018,04,21,15,38,12.80
2018,04,21,15,39,12.90
2018,04,21,15,40,12.90
2018,04,21,15,41,12.90
2018,04,21,15,42,12.90
2018,04,21,15,43,12.90
2018,04,21,15,44,12.90
2018,04,21,15,45,12.90
2018,04,21,15,46,12.90
2018,04,21,15,47,12.90
2018,04,21,15,48,12.90
2018,04,21,15,49,12.90
2018,04,21,15,50,12.80
2018,04,21,15,51,12.80
2018,04,21,15,52,12.80
2018,04,21,15,53,12.80
2018,04,21,15,54,12.70
2018,04,21,15,55,12.70
2018,04,21,15,56,12.60
2018,04,21,15,57,12.60
2018,04,21,15,58,12.60
2018,04,21,15,59,12.60
2018,04,21,16,00,12.60
2018,04,21,16,01,12.60
2018,04,21,16,02,12.60
2018,04,21,16,03,12.60
2018,04,21,16,04,12.60
2018,04,21,16,05,12.50
2018,04,21,16,06,12.60
2018,04,21,16,07,12.60
2018,04,21,16,08,12.60
2018,04,21,16,09,12.60
2018,04,21,16,10,12.60
2018,04,21,16,11,12.60
2018,04,21,16,12,12.60
2018,04,21,16,13,12.60
2018,04,21,16,14,12.70
2018,04,21,16,15,12.80
2018,04,21,16,16,12.80
2018,04,21,16,17,12.80
2018,04,21,16,18,12.80
2018,04,21,16,19,12.80
2018,04,21,16,20,12.80
2018,04,21,16,21,12.80
2018,04,21,16,22,12.80
2018,04,21,16,23,12.70
2018,04,21,16,24,12.70
2018,04,21,16,25,12.70
2018,04,21,16,26,12.70
2018,04,21,16,27,12.70
2018,04,21,16,28,12.70
2018,04,21,16,29,12.60
2018,04,21,16,30,12.60
2018,04,21,16,31,12.60
2018,04,21,16,32,12.60
2018,04,21,16,33,12.60
2018,04,21,16,34,12.50
2018,04,21,16,35,12.50
2018,04,21,16,36,12.50
2018,04,21,16,37,12.50
2018,04,21,16,38,12.50
2018,04,21,16,39,12.50
2018,04,21,16,40,12.50
2018,04,21,16,41,12.50
2018,04,21,16,42,12.60
2018,04,21,16,43,12.60
2018,04,21,16,44,12.60
2018,04,21,16,45,12.60
2018,04,21,16,46,12.50
2018,04,21,16,47,12.50
2018,04,21,16,48,12.50
2018,04,21,16,49,12.50
2018,04,21,16,50,12.50
2018,04,21,16,51,12.50
2018,04,21,16,52,12.50
2018,04,21,16,53,12.50
2018,04,21,16,54,12.50
2018,04,21,16,55,12.40
2018,04,21,16,56,12.40
2018,04,21,16,57,12.40
2018,04,21,16,58,12.40
2018,04,21,16,59,12.30
2018,04,21,17,00,12.30
2018,04,21,17,01,12.30
2018,04,21,17,02,12.30
2018,04,21,17,03,12.30
2018,04,21,17,04,12.30
2018,04,21,17,05,12.30
2018,04,21,17,06,12.30
2018,04,21,17,07,12.30
2018,04,21,17,08,12.20
2018,04,21,17,09,12.20
2018,04,21,17,10,12.20
2018,04,21,17,11,12.20
2018,04,21,17,12,12.20
2018,04,21,17,13,12.20
2018,04,21,17,14,12.20
2018,04,21,17,15,12.20
2018,04,21,17,16,12.20
2018,04,21,17,17,12.20
2018,04,21,17,18,12.10
2018,04,21,17,19,12.10
2018,04,21,17,20,12.10
2018,04,21,17,21,12.10
2018,04,21,17,22,12.10
2018,04,21,17,23,12.10
2018,04,21,17,24,12.10
2018,04,21,17,25,12.10
2018,04,21,17,26,12.10
2018,04,21,17,27,12.20
2018,04,21,17,28,12.20
2018,04,21,17,29,12.20
2018,04,21,17,30,12.20
2018,04,21,17,31,12.20
2018,04,21,17,32,12.20
2018,04,21,17,33,12.20
2018,04,21,17,34,12.20
2018,04,21,17,35,12.20
2018,04,21,17,36,12.20
2018,04,21,17,37,12.20
2018,04,21,17,38,12.20
2018,04,21,17,39,12.10
2018,04,21,17,40,12.10
2018,04,21,17,41,12.10
2018,04,21,17,42,12.10
2018,04,21,17,43,12.10
2018,04,21,17,44,12.00
2018,04,21,17,45,12.00
2018,04,21,17,46,12.10
2018,04,21,17,47,12.10
2018,04,21,17,48,12.10
2018,04,21,17,49,12.10
2018,04,21,17,50,12.00
2018,04,21,17,51,12.00
2018,04,21,17,52,11.90
2018,04,21,17,53,11.90
2018,04,21,17,54,11.90
2018,04,21,17,55,11.90
2018,04,21,17,56,11.90
2018,04,21,17,57,11.90
2018,04,21,17,58,11.80
2018,04,21,17,59,11.80
2018,04,21,18,00,11.80
2018,04,21,18,01,11.80
2018,04,21,18,02,11.80
2018,04,21,18,03,11.80
2018,04,21,18,04,11.80
2018,04,21,18,05,11.80
2018,04,21,18,06,11.80
2018,04,21,18,07,11.80
2018,04,21,18,08,11.80
2018,04,21,18,09,11.80
2018,04,21,18,10,11.80
2018,04,21,18,11,11.70
2018,04,21,18,12,11.70
2018,04,21,18,13,11.70
2018,04,21,18,14,11.70
2018,04,21,18,15,11.70
2018,04,21,18,16,11.60
2018,04,21,18,17,11.60
2018,04,21,18,18,11.60
2018,04,21,18,19,11.60
2018,04,21,18,20,11.60
2018,04,21,18,21,11.60
2018,04,21,18,22,11.60
2018,04,21,18,23,11.60
2018,04,21,18,24,11.60
2018,04,21,18,25,11.60
2018,04,21,18,26,11.60
2018,04,21,18,27,11.60
2018,04,21,18,28,11.60
2018,04,21,18,29,11.60
2018,04,21,18,30,11.60
2018,04,21,18,31,11.60
2018,04,21,18,32,11.60
2018,04,21,18,33,11.40
2018,04,21,18,34,11.40
2018,04,21,18,35,11.40
2018,04,21,18,36,11.40
2018,04,21,18,37,11.40
2018,04,21,18,38,11.40
2018,04,21,18,39,11.40
2018,04,21,18,40,11.40
2018,04,21,18,41,11.40
2018,04,21,18,42,11.40
2018,04,21,18,43,11.40
2018,04,21,18,44,11.40
2018,04,21,18,45,11.40
2018,04,21,18,46,11.40
2018,04,21,18,47,11.40
2018,04,21,18,48,11.30
2018,04,21,18,49,11.30
2018,04,21,18,50,11.30
2018,04,21,18,51,11.20
2018,04,21,18,52,11.20
2018,04,21,18,53,11.20
2018,04,21,18,54,11.20
2018,04,21,18,55,11.20
2018,04,21,18,56,11.10
2018,04,21,18,57,11.10
2018,04,21,18,58,11.10
2018,04,21,18,59,11.10
2018,04,21,19,00,11.10
2018,04,21,19,01,11.10
2018,04,21,19,02,11.10
2018,04,21,19,03,11.10
2018,04,21,19,04,11.10
2018,04,21,19,05,11.10
2018,04,21,19,06,11.10
2018,04,21,19,07,11.10
2018,04,21,19,08,11.00
2018,04,21,19,09,10.90
2018,04,21,19,10,10.90
2018,04,21,19,11,10.90
2018,04,21,19,12,10.90
2018,04,21,19,13,10.90
2018,04,21,19,14,10.90
2018,04,21,19,15,10.90
2018,04,21,19,16,10.90
2018,04,21,19,17,10.90
2018,04,21,19,18,10.90
2018,04,21,19,19,10.80
2018,04,21,19,20,10.80
2018,04,21,19,21,10.80
2018,04,21,19,22,10.80
2018,04,21,19,23,10.70
2018,04,21,19,24,10.70
2018,04,21,19,25,10.60
2018,04,21,19,26,10.60
2018,04,21,19,27,10.60
2018,04,21,19,28,10.60
2018,04,21,19,29,10.60
2018,04,21,19,30,10.50
2018,04,21,19,31,10.40
2018,04,21,19,32,10.40
2018,04,21,19,33,10.40
2018,04,21,19,34,10.30
2018,04,21,19,35,10.30
2018,04,21,19,36,10.30
2018,04,21,19,37,10.20
2018,04,21,19,38,10.20
2018,04,21,19,39,10.20
2018,04,21,19,40,10.10
2018,04,21,19,41,10.10
2018,04,21,19,42,10.10
2018,04,21,19,43,10.10
2018,04,21,19,44,10.10
2018,04,21,19,45,10.10
2018,04,21,19,46,10.10
2018,04,21,19,47,10.10
2018,04,21,19,48,10.00
2018,04,21,19,49,9.90
2018,04,21,19,50,9.90
2018,04,21,19,51,9.90
2018,04,21,19,52,9.90
2018,04,21,19,53,9.90
2018,04,21,19,54,9.90
2018,04,21,19,55,9.90
2018,04,21,19,56,9.90
2018,04,21,19,57,9.90
2018,04,21,19,58,9.90
2018,04,21,19,59,9.90
